Cloud_Cover
21 31 100 100 100 19 6 17 100 44 5 5 100 99 100 89 60 10 5 3 3 26 6 29 95 4 100 44 43 23 74 58 98 76 92 14 60 3 6 69 6 26 44
96 92 100 98 82 24 28 5 53 100 56 5 51 100 97 83 100 100 99 23 3 2 7 5 1 29 4 8 71 43 0 13 10 100 90 1 0 90 2 98 4 12 99
100 68 100 100 95 14 34 98 7 96 100 21 5 68 50 100 100 85 99 100 37 5 3 0 4 2 5 7 90 83 48 93 45 30 90 100 25 31 25 80 100 81 8
100 98 84 80 16 66 8 5 33 71 100 100 94 6 34 40 77 100 32 86 79 59 39 0 0 11 4 34 92 100 100 100 97 89 41 78 100 72 31 13 91 81 84
100 95 100 100 22 5 5 5 48 17 33 100 100 95 40 39 11 22 46 99 40 100 91 93 19 2 11 0 63 100 100 10 11 35 100 100 56 89 12 66 17 17 43
100 100 100 100 99 6 9 90 5 96 46 73 100 100 100 59 38 10 4 9 90 84 99 100 100 100 9 1 2 5 4 6 5 5 0 17 88 26 80 88 0 0 30
100 100 100 100 100 100 40 100 77 25 77 74 99 86 100 100 100 100 100 100 16 98 99 98 97 95 44 98 49 10 29 2 3 4 3 4 0 0 0 4 5 1 4
100 100 98 100 100 100 100 97 64 61 50 35 8 6 10 77 100 98 91 90 45 25 82 94 98 100 58 69 99 48 85 99 76 9 2 0 4 0 0 0 3 5 22
100 100 100 100 100 100 100 100 100 98 66 83 26 61 100 48 71 97 35 5 6 54 93 69 100 99 83 54 86 94 56 100 100 100 98 86 72 12 62 0 2 29 37
100 100 100 100 100 100 100 100 85 92 71 97 88 74 85 57 99 100 98 6 69 63 12 92 99 100 100 100 100 100 100 97 10 78 99 100 100 100 36 11 0 0 39
100 100 97 100 100 99 80 99 92 87 100 100 100 100 100 100 100 87 96 97 79 74 82 61 58 100 100 100 100 96 81 99 94 81 100 100 100 100 100 100 80 66 52
21 80 76 20 5 79 71 64 50 77 50 76 52 43 72 62 73 74 100 98 53 97 57 69 83 99 100 100 100 100 100 95 100 69 30 59 100 100 100 100 100 97 87
5 5 5 16 19 93 100 100 100 43 100 100 100 100 97 99 94 95 96 100 98 98 100 98 100 100 100 99 100 100 100 100 100 100 84 98 100 100 100 100 100 100 100
100 100 90 100 100 100 100 99 99 100 100 100 100 100 100 100 100 100 93 54 66 36 79 28 50 46 79 32 93 69 98 100 100 100 100 100 100 100 100 100 100 100 100
100 100 100 100 100 100 100 72 98 98 87 100 100 100 100 100 91 60 76 71 85 51 42 66 100 93 45 25 48 90 100 100 100 100 100 100 100 100 100 100 100 100 100
57 100 100 91 7 0 5 9 86 76 100 100 100 68 52 72 100 100 100 100 100 100 68 78 92 75 31 31 84 99 65 99 100 96 100 100 100 100 100 100 100 100 100
0 0 0 0 0 12 0 2 9 36 79 100 100 100 100 97 100 100 100 100 100 83 92 69 58 56 84 71 61 92 100 90 100 100 96 100 100 100 100 100 100 100 100
7 52 2 0 0 0 0 0 0 0 8 32 61 34 98 100 100 100 100 87 40 51 98 84 67 45 100 100 100 100 92 100 97 82 99 100 57 100 100 100 100 100 100
52 49 35 0 0 0 0 0 0 8 0 95 8 35 67 90 100 100 100 33 92 94 100 88 99 100 100 100 100 100 100 100 100 100 92 66 77 75 100 100 100 100 100
98 100 100 6 0 0 1 1 0 1 9 92 40 66 6 48 21 32 30 87 94 100 47 28 5 4 41 15 50 97 100 94 88 100 100 68 56 75 36 99 100 100 100
100 100 99 0 0 0 0 0 0 0 15 0 8 55 8 0 54 86 34 90 32 55 25 100 71 0 0 2 11 5 8 18 96 100 100 97 98 99 74 73 100 100 100
100 100 100 25 5 2 4 5 2 2 14 26 12 13 77 5 98 100 95 46 74 70 63 2 0 0 0 0 0 0 0 0 0 1 3 0 9 12 4 3 1 0 2
100 100 100 87 100 98 43 43 5 17 32 5 5 4 4 5 14 28 62 24 16 2 0 0 0 0 0 0 0 0 0 0 0 0 0 0 0 0 0 0 0 0 0
99 68 100 100 100 100 87 7 18 34 17 10 5 5 3 0 0 0 0 0 0 0 0 0 0 0 0 1 4 0 0 1 2 0 0 0 0 1 0 10 2 17 4
78 27 99 99 100 31 7 4 8 7 5 15 0 2 4 3 5 5 1 5 5 5 2 0 0 0 0 0 0 11 0 5 5 43 25 3 0 0 2 0 1 8 7
100 91 100 84 100 100 81 21 45 22 5 4 1 2 5 8 5 5 4 4 4 2 2 4 6 5 12 7 0 0 0 1 68 100 72 26 7 5 2 2 5 5 5